This demonstration page uses our WeatherBlox Daily Observations layout. Learn more.

Left ArrowRight Arrow

Hourly Observations for May 28, 2017

Temp ( °F °C ) Dew Point ( °F °C ) Humidity (%) Winds ( mph kmh ) Pressure ( in mb ) Visibility ( mi km ) Precip ( " mm )
12:53 am 00:53 Mostly Clear 49 9.4 43 6.1 80 80 WSW 10 17 30.06 1018 10 16 0.00 0.00
1:53 am 01:53 Clear 48 8.9 42 5.6 80 80 WNW 6 9 30.06 1018 10 16 0.00 0.00
2:53 am 02:53 Mostly Clear 49 9.4 43 6.1 80 80 WSW 8 13 30.07 1018 10 16 0.00 0.00
3:53 am 03:53 Clear 49 9.4 43 6.1 80 80 SW 6 9 30.08 1019 10 16 0.00 0.00
4:53 am 04:53 Clear 48 8.9 43 6.1 83 83 NNE 7 11 30.09 1019 10 16 0.00 0.00
5:53 am 05:53 Sunny 47 8.3 43 6.1 86 86 VRB 5 7 30.11 1020 10 16 0.00 0.00
6:53 am 06:53 Sunny 52 11.1 46 7.8 80 80 SW 7 11 30.12 1020 10 16 0.00 0.00
7:53 am 07:53 Sunny 59 15 46 7.8 62 62 WNW 7 11 30.13 1020 10 16 0.00 0.00
8:53 am 08:53 Sunny 67 19.4 45 7.2 45 45 NNW 12 19 30.14 1021 10 16 0.00 0.00
9:53 am 09:53 Sunny 71 21.7 38 3.3 30 30 N 10 17 30.15 1021 10 16 0.00 0.00
10:53 am 10:53 Sunny 73 22.8 34 1.1 24 24 N 12 19 30.16 1021 10 16 0.00 0.00
11:53 am 11:53 Sunny 73 22.8 34 1.1 24 24 NNE 7 11 30.17 1022 10 16 0.00 0.00
12:53 pm 12:53 Mostly Sunny 75 23.9 35 1.7 23 23 NW 13 20 30.16 1022 10 16 0.00 0.00
1:53 pm 13:53 Sunny 76 24.4 34 1.1 22 22 N 22 35 30.16 1021 10 16 0.00 0.00
2:53 pm 14:53 Sunny 76 24.4 36 2.2 23 23 NNW 17 28 30.15 1021 10 16 0.00 0.00
3:53 pm 15:53 Mostly Sunny 76 24.4 36 2.2 23 23 NNW 17 28 30.15 1021 10 16 0.00 0.00
4:53 pm 16:53 Sunny 76 24.4 36 2.2 23 23 N 21 33 30.15 1021 10 16 0.00 0.00
5:53 pm 17:53 Sunny 74 23.3 34 1.1 23 23 N 12 19 30.15 1021 10 16 0.00 0.00
6:53 pm 18:53 Sunny 73 22.8 34 1.1 24 24 N 18 30 30.14 1021 10 16 0.00 0.00
7:53 pm 19:53 Sunny 70 21.1 32 0 25 25 N 14 22 30.14 1021 10 16 0.00 0.00
8:53 pm 20:53 Sunny 65 18.3 34 1.1 32 32 NNE 10 17 30.15 1021 10 16 0.00 0.00
9:53 pm 21:53 Clear 60 15.6 30 -1.1 32 32 NE 7 11 30.16 1022 10 16 0.00 0.00
10:53 pm 22:53 Clear 57 13.9 29 -1.7 34 34 NNE 7 11 30.18 1022 10 16 0.00 0.00
11:53 pm 23:53 Clear 50 10 33 0.6 52 52 E 7 11 30.19 1023 10 16 0.00 0.00

Powered by AerisWeather